RH
7 7 6 8 11 13 10 7 14 16 17 16 9 10 11 10 12 12 19 28 24 16 7 10 13 11 28 39 39 38 36 41 44 46 50 45 42 42 38 39 48 52 51 52 53 51 47 45 45 44 45 43 41 38 35 35 35 36 32 28 27 34 39 34 31 29 29 27 26 24 23 22 20 19 18 16 15 12 9 6 7 9 15 23 24 24 24 24 23 25 28 27 27 27 27 26 26
6 6 5 7 9 14 13 6 16 18 12 11 9 9 10 10 10 15 30 39 25 12 9 11 16 18 30 39 37 42 42 41 41 41 39 36 40 41 47 54 54 57 55 54 53 51 49 46 46 45 46 45 43 40 36 36 36 36 33 30 28 36 42 36 32 31 31 29 26 24 24 22 20 20 20 19 17 15 13 9 6 8 14 22 24 24 24 24 24 24 29 28 27 28 27 28 27
5 5 5 7 8 11 14 8 13 14 10 9 8 8 10 10 11 25 38 38 26 14 17 20 29 33 38 45 42 50 48 39 37 31 28 31 36 33 41 50 47 52 54 54 53 51 51 48 49 48 47 48 46 42 39 38 38 37 34 31 30 38 44 39 34 34 33 31 27 25 25 24 22 21 22 21 19 19 20 17 10 8 11 20 25 24 25 24 24 23 28 30 27 28 28 28 28
4 4 5 7 8 9 16 16 12 11 10 8 6 8 8 9 12 23 27 31 34 29 33 37 42 45 50 48 38 50 43 30 29 24 29 28 29 30 36 44 43 49 49 50 53 51 52 52 52 51 50 51 50 45 41 40 40 39 36 33 32 39 46 42 38 37 35 31 28 28 27 25 24 23 23 23 22 22 28 30 22 17 11 16 24 24 26 24 24 23 26 31 28 28 29 28 28
3 4 4 6 13 15 22 22 14 11 9 7 6 9 8 10 14 17 18 27 38 39 42 47 52 50 54 47 37 50 38 26 28 24 31 25 26 33 38 46 48 51 48 48 52 52 55 56 55 55 55 55 54 48 43 42 42 41 37 34 34 40 48 45 40 38 35 31 29 31 29 27 25 23 24 23 22 22 32 46 42 31 15 12 23 24 26 25 25 24 24 30 30 28 29 29 28
2 3 4 5 14 15 19 19 13 11 9 8 7 10 12 12 15 13 15 23 38 47 47 50 54 49 47 42 38 43 30 27 30 24 29 25 25 31 37 45 53 59 52 48 48 49 56 61 61 61 60 60 58 51 46 45 44 42 38 36 37 44 50 47 43 38 34 32 32 32 29 27 25 25 26 24 33 36 37 55 62 52 25 10 19 24 26 25 25 25 23 27 31 31 29 29 29
2 4 4 4 10 10 15 16 10 9 7 9 9 13 15 14 14 11 12 14 31 48 51 50 48 50 48 40 40 37 29 28 27 27 30 29 30 34 41 43 50 57 49 45 44 47 57 62 66 67 68 67 64 57 50 48 46 42 40 38 42 50 53 49 45 38 35 36 35 33 29 29 29 28 29 32 50 55 43 49 64 69 48 20 17 22 26 26 25 25 24 24 29 34 32 30 29
2 5 4 9 15 11 15 15 9 8 9 9 9 12 13 13 11 10 12 11 24 40 48 47 44 58 54 42 43 35 30 27 23 31 33 35 38 39 47 44 46 50 45 50 51 53 58 59 65 70 74 74 70 62 54 51 48 45 42 40 48 57 59 54 45 37 37 38 37 35 31 31 32 30 31 41 52 49 47 50 57 69 62 38 22 21 25 27 27 25 25 23 25 31 34 32 29
2 5 4 12 20 14 13 13 9 10 10 10 9 12 12 10 8 9 11 11 19 29 38 40 45 59 52 44 44 33 31 27 22 31 34 38 42 42 46 45 50 53 50 57 59 58 58 59 66 73 79 80 77 68 57 51 48 46 43 45 54 60 62 55 42 39 41 39 39 38 35 34 33 31 28 36 38 38 54 57 51 56 54 41 23 19 25 26 28 27 26 25 23 25 31 33 30
3 5 7 13 18 14 11 10 9 10 10 10 12 16 15 8 7 9 10 11 14 24 33 35 44 53 51 47 40 32 30 25 24 29 31 35 40 44 45 45 52 56 55 56 59 60 60 64 72 76 81 83 81 74 61 51 48 46 45 50 57 61 61 51 42 45 45 42 43 41 38 37 33 33 29 29 28 36 55 52 45 45 44 41 26 17 21 26 29 29 27 25 25 23 25 30 31
7 5 7 13 15 12 9 8 7 10 11 10 14 18 15 8 8 8 9 11 14 25 29 34 46 46 48 45 35 33 26 23 27 28 30 32 35 40 45 48 49 54 57 57 59 64 66 70 75 75 79 83 82 78 65 53 49 47 48 55 59 61 58 49 49 52 49 48 48 45 43 39 34 32 31 30 29 33 42 42 44 46 48 49 36 21 17 24 29 30 30 26 26 25 24 25 29
14 9 6 11 11 9 8 8 7 9 10 11 16 17 14 8 9 9 10 10 14 23 20 36 51 42 47 42 33 33 26 23 26 29 32 31 31 35 44 48 49 53 57 57 59 67 73 75 77 76 80 86 85 81 67 54 50 50 54 60 61 60 54 51 55 55 54 55 53 52 47 39 35 34 32 32 32 35 42 49 51 51 56 57 51 36 17 20 29 30 31 30 27 26 26 24 24
16 16 10 11 10 9 9 9 8 9 9 12 16 15 14 12 12 10 12 9 13 23 17 31 42 39 49 40 34 35 27 25 24 28 30 29 28 29 38 45 50 54 54 58 62 70 76 79 84 82 81 86 88 87 75 57 51 55 60 61 59 55 53 56 58 58 59 59 57 57 49 39 36 36 36 33 36 45 52 59 58 58 64 58 57 54 32 19 24 30 31 31 31 27 27 26 25
14 18 13 11 11 12 10 8 9 9 8 15 16 13 14 15 15 10 12 10 14 28 23 27 32 42 50 33 33 34 25 27 25 26 26 27 27 27 39 47 50 50 52 60 69 78 81 82 88 86 82 84 85 88 83 62 51 59 62 58 56 53 56 59 59 61 62 61 61 57 46 41 40 39 37 33 40 52 54 57 60 63 68 57 53 61 54 34 22 24 29 30 31 30 28 27 26
12 14 12 13 12 12 10 10 10 8 10 17 16 14 16 17 18 11 14 19 19 23 25 30 32 42 48 35 35 31 25 28 23 24 23 23 26 29 41 47 46 47 54 60 70 81 84 86 92 89 85 84 81 84 82 64 55 59 58 55 57 59 60 61 61 62 63 64 60 52 45 43 43 41 38 35 39 48 51 57 61 63 67 61 55 57 63 60 41 25 22 27 30 31 30 28 27
9 10 14 15 13 12 10 11 10 9 13 17 16 15 19 21 23 16 13 19 18 17 26 35 31 32 41 41 39 31 26 25 21 23 20 19 23 28 41 49 45 48 56 59 67 76 77 81 90 91 86 83 79 79 76 66 62 61 58 59 63 64 62 62 63 64 66 65 55 47 46 48 50 45 39 40 40 44 50 59 65 69 71 68 65 60 59 67 65 48 28 21 25 29 30 28 28
8 11 18 17 13 12 11 11 10 11 14 17 16 15 21 24 27 21 14 15 14 18 29 33 30 34 39 37 32 24 21 22 22 21 18 18 19 25 40 48 50 57 59 60 69 76 78 78 83 88 84 77 74 74 70 65 65 65 64 64 65 65 65 67 67 70 70 62 52 48 52 53 56 52 47 49 46 45 53 62 71 77 78 75 71 68 63 62 67 68 54 32 21 23 27 28 28
10 13 17 15 13 12 12 12 11 14 16 17 16 15 19 25 29 29 31 32 24 28 36 32 30 32 29 23 20 16 17 22 22 21 20 20 21 28 41 47 55 64 63 63 71 78 82 81 82 84 79 74 73 73 69 66 68 69 68 65 66 68 69 70 70 74 70 60 54 55 58 57 58 56 56 60 53 50 56 63 74 79 81 82 79 75 71 64 61 66 69 57 36 23 21 25 26
11 17 18 14 14 13 13 14 13 15 17 17 16 15 19 24 28 36 47 43 33 40 38 30 26 20 16 15 15 14 17 23 23 24 24 24 30 38 48 53 57 61 65 69 72 75 80 82 84 81 77 78 73 70 70 71 72 72 70 67 69 72 72 73 75 77 69 62 58 58 62 62 63 62 61 64 58 54 55 59 72 80 82 85 87 83 76 70 63 60 65 68 59 42 26 21 21
12 18 19 15 15 16 12 10 11 14 16 17 15 14 18 23 23 32 46 36 35 45 31 20 20 14 14 14 13 14 17 23 26 27 25 27 35 43 52 56 58 63 68 73 73 75 79 81 84 81 78 77 72 71 73 72 73 73 70 70 74 75 77 81 80 76 68 65 63 62 63 63 66 69 70 70 66 60 57 58 67 76 79 82 84 85 83 76 68 60 60 65 66 60 49 35 24
17 16 16 16 16 16 12 10 10 12 15 16 14 14 16 21 19 23 38 33 38 48 28 19 19 12 14 13 12 14 17 23 27 28 27 27 33 45 55 58 63 68 69 74 77 77 79 80 82 83 79 74 72 73 74 72 72 75 73 74 74 73 82 88 80 71 68 66 67 66 64 64 67 71 74 75 73 68 63 62 64 69 74 78 79 79 81 79 76 70 61 62 65 63 62 59 47
20 14 13 20 18 14 15 14 10 11 16 16 14 15 15 20 18 18 31 33 36 43 30 23 23 17 16 15 14 15 17 21 27 29 29 30 35 48 55 55 62 66 67 72 76 75 77 83 83 81 78 75 75 72 76 77 73 75 78 77 75 75 82 83 75 70 69 67 66 66 66 68 70 72 77 77 77 72 66 65 65 68 73 78 78 75 74 72 78 82 68 60 61 58 57 62 63
16 15 13 15 11 11 17 15 10 11 15 16 15 14 14 17 18 16 32 39 28 27 24 20 21 18 14 14 15 17 19 22 29 34 35 38 45 57 58 53 57 59 60 63 68 71 77 86 85 83 81 79 80 75 75 78 74 75 78 80 81 79 77 77 77 73 72 70 67 67 69 70 70 70 73 74 73 72 69 67 67 69 72 76 76 73 71 67 73 84 80 71 65 60 58 58 59
11 18 17 13 9 9 13 12 10 10 12 16 15 14 14 15 16 15 28 34 19 15 17 15 16 14 12 13 14 17 20 24 35 41 46 54 63 66 56 51 56 58 60 61 67 71 76 84 82 82 82 81 84 79 74 77 78 80 80 81 82 78 75 76 75 72 73 73 70 69 69 69 68 65 69 70 64 64 67 68 69 70 72 74 73 71 70 70 74 81 84 83 77 70 66 61 55
9 16 21 16 10 8 9 10 9 10 12 15 15 15 14 13 15 14 18 19 13 13 14 12 13 12 12 14 13 16 17 24 38 51 62 70 68 57 50 57 66 68 67 66 71 71 74 82 78 75 78 80 84 80 79 78 74 81 83 77 76 79 80 75 68 70 72 70 68 67 69 71 66 57 61 66 56 55 65 70 72 71 73 74 74 76 74 74 77 80 81 81 77 74 71 62 49
11 12 22 17 11 11 10 8 9 11 13 15 15 16 15 13 13 14 14 13 13 14 13 12 13 11 12 14 15 18 21 29 43 57 64 60 49 44 54 68 74 75 73 71 73 70 71 77 74 73 75 77 80 79 83 80 69 74 76 69 71 72 69 67 66 66 61 61 67 68 68 67 63 58 56 53 46 51 65 72 72 70 72 74 77 78 75 74 73 75 76 75 72 73 75 63 46
17 15 20 16 14 15 10 9 11 13 13 13 15 15 16 14 13 16 16 13 13 13 12 13 12 11 12 14 17 21 28 36 43 49 49 45 41 42 49 53 58 67 72 75 76 72 70 71 69 68 71 74 77 75 76 79 73 67 62 62 67 57 47 51 54 50 47 55 63 61 57 52 57 65 60 52 49 60 70 70 67 67 71 73 76 76 73 72 70 69 72 74 73 76 78 71 58
19 17 17 13 13 14 9 9 11 13 14 14 15 15 17 15 13 20 19 13 13 13 13 12 12 12 12 15 20 25 32 37 41 43 42 44 49 50 48 45 49 51 51 62 74 76 70 66 65 64 71 77 74 70 71 73 70 62 54 53 51 38 32 34 34 36 39 49 54 53 52 50 59 69 67 63 63 70 73 70 68 69 70 72 73 75 74 71 69 69 70 70 69 71 75 77 73
15 14 15 14 15 14 10 11 12 14 15 15 15 14 16 16 15 20 18 14 13 12 12 11 12 11 11 16 23 29 36 35 34 38 38 45 56 59 57 53 52 47 43 50 63 74 69 62 66 67 71 75 71 70 65 54 53 56 55 50 39 29 27 25 25 28 30 43 56 60 61 63 71 75 71 68 64 66 66 66 70 71 71 74 75 76 79 75 70 69 67 66 66 65 71 78 80
14 14 16 17 16 14 13 14 13 12 14 15 15 13 13 15 19 18 15 13 13 12 12 11 11 10 13 19 26 34 38 31 28 35 40 49 58 60 62 59 54 49 47 48 53 66 70 66 68 68 66 69 72 66 48 40 48 59 61 55 40 29 28 25 24 26 31 51 63 64 68 72 74 72 70 68 62 63 66 68 71 73 74 75 75 78 82 80 73 71 69 68 67 65 68 76 80
15 18 17 16 14 12 14 15 12 11 14 15 13 13 10 12 18 17 14 13 13 12 11 12 11 11 16 21 32 40 34 26 30 40 45 51 55 56 59 59 55 51 51 52 52 62 72 70 67 65 63 66 68 52 35 38 45 51 57 51 35 26 27 24 20 21 29 47 56 59 69 76 75 68 65 68 67 67 69 72 73 73 76 75 77 79 77 77 75 71 68 64 63 64 68 74 77
17 19 16 15 13 12 15 15 11 11 14 14 13 13 9 11 17 14 13 13 13 11 10 13 10 12 21 25 39 46 32 27 36 43 44 49 54 54 55 55 54 54 58 59 55 62 73 72 64 61 67 67 54 36 28 30 29 31 39 35 26 22 21 18 16 15 16 23 30 37 47 58 65 63 60 64 67 70 70 71 73 74 76 75 76 78 74 73 74 69 63 58 57 61 67 74 77
19 17 14 15 14 12 14 15 13 13 15 14 13 12 9 14 17 13 13 13 12 11 9 12 11 14 26 31 38 42 33 29 36 39 40 48 55 54 53 54 54 56 62 62 56 61 73 72 60 57 70 65 39 25 24 23 22 24 27 24 21 19 18 17 16 15 12 10 11 14 18 27 38 47 57 64 66 70 71 69 70 72 75 75 73 74 73 71 71 69 62 58 58 60 64 71 73
19 16 15 17 16 11 12 16 15 13 14 14 13 12 11 18 20 14 12 13 12 10 9 11 12 18 31 35 34 36 33 31 35 37 39 49 54 53 53 55 57 58 60 60 53 60 70 67 56 57 67 52 26 22 23 22 24 24 24 23 22 22 22 22 21 19 16 12 9 8 8 12 19 30 48 60 63 70 71 67 67 69 71 73 71 70 70 68 68 67 63 61 61 62 66 69 69
19 17 16 18 18 14 13 16 17 15 15 14 15 15 12 17 23 17 11 13 12 9 13 14 13 23 34 35 33 35 35 32 37 38 39 50 54 53 56 56 57 55 54 55 53 56 62 58 53 61 64 40 20 23 23 23 26 25 26 26 25 27 27 26 26 25 22 18 14 9 7 8 12 20 33 47 61 68 67 64 65 67 69 71 71 71 71 69 68 66 64 63 61 64 68 67 65
20 17 16 17 17 15 14 19 22 20 19 17 16 17 16 16 24 22 11 12 12 11 20 18 16 28 35 35 34 37 37 32 34 35 37 49 54 55 58 57 55 53 52 53 53 52 55 53 52 63 61 33 20 24 23 25 27 27 29 28 29 30 31 32 32 31 29 25 20 15 10 7 7 12 22 40 58 64 64 66 67 67 68 70 71 72 74 74 69 67 66 63 62 67 70 67 64
20 19 17 17 17 16 15 21 25 22 21 20 18 19 19 15 23 26 12 11 13 12 18 15 18 32 34 36 37 37 38 34 31 31 34 44 51 54 58 58 55 53 53 51 50 51 54 51 47 58 54 28 22 25 24 26 26 28 30 29 32 32 34 36 37 38 37 32 27 21 15 9 6 6 12 25 40 47 50 57 62 66 68 71 72 71 75 77 74 72 70 65 65 69 70 69 69
23 21 18 17 17 16 17 22 25 23 21 21 20 21 20 17 24 26 14 12 13 11 13 11 22 33 32 38 42 40 39 32 28 27 30 38 46 52 56 59 57 54 51 48 47 48 52 51 46 55 47 24 23 26 24 27 27 29 31 30 33 34 36 38 39 41 41 39 34 26 19 13 7 6 7 11 19 27 42 58 63 67 70 73 76 75 77 81 79 78 73 68 69 69 68 70 71
24 22 19 18 16 16 21 25 23 23 22 22 24 21 20 20 22 22 15 11 15 20 18 15 25 31 30 42 50 46 37 28 26 25 26 31 38 47 54 58 58 54 50 47 46 46 53 55 49 55 46 25 24 26 24 28 28 30 31 32 34 36 38 39 38 40 42 43 40 32 26 17 10 10 8 9 16 21 39 66 72 70 72 71 74 75 76 79 78 77 71 66 67 66 65 67 70
24 22 19 18 17 16 20 24 21 22 22 23 24 21 22 21 17 17 16 13 19 27 25 24 32 31 32 46 54 48 34 26 27 24 25 27 30 41 50 56 57 51 47 42 43 47 52 52 48 54 48 30 25 26 25 28 29 30 30 32 35 36 38 39 37 38 40 44 43 39 33 23 15 13 7 11 27 24 25 45 53 54 60 63 69 73 73 74 72 70 67 65 65 63 62 63 67
22 23 20 18 19 18 20 23 22 21 22 22 21 19 24 26 21 18 15 15 19 21 20 23 28 30 36 47 50 43 32 28 27 23 24 25 27 35 45 54 56 50 45 40 42 49 50 48 46 50 49 34 26 26 26 28 29 30 31 32 35 36 38 40 39 39 41 43 45 44 41 33 23 15 8 9 19 17 15 24 26 27 37 47 58 66 68 69 67 65 64 63 60 55 53 54 58
20 24 23 21 21 21 23 25 24 23 23 23 20 17 21 28 34 30 17 12 15 16 18 19 19 25 37 43 40 35 31 29 27 23 25 26 26 31 40 52 54 50 47 41 45 52 52 49 47 49 48 35 26 27 27 29 30 30 32 34 36 38 41 42 43 44 45 46 47 48 46 42 31 20 13 8 7 7 10 14 14 17 26 33 42 51 57 60 59 58 55 52 50 48 45 44 49
18 21 21 23 25 26 27 27 24 22 23 23 19 19 20 22 33 36 20 11 15 20 25 21 17 27 38 39 35 34 34 32 28 24 25 26 26 29 38 47 51 52 50 45 47 53 53 50 49 53 48 32 26 29 29 29 31 32 34 37 39 43 46 47 50 51 51 51 50 51 50 48 39 26 16 9 7 8 8 11 12 13 18 22 25 32 41 47 47 47 45 40 39 40 40 41 48
21 21 21 23 26 28 28 27 23 21 24 24 19 21 21 17 26 29 17 12 19 27 30 24 23 33 39 36 36 38 38 36 32 26 26 27 25 28 37 46 50 52 51 49 48 52 56 52 49 53 47 31 27 30 31 32 34 35 37 39 43 47 50 52 55 58 58 58 56 55 56 53 45 32 19 12 10 9 9 12 12 12 16 20 21 26 34 38 42 44 39 31 27 29 36 44 53
24 24 25 26 26 26 27 26 22 23 25 22 21 23 18 17 24 21 13 20 32 37 34 28 32 38 37 37 39 39 39 40 36 28 28 29 27 29 35 43 49 52 52 52 49 51 57 54 48 49 44 33 30 30 32 35 37 38 39 43 47 51 55 56 59 63 64 65 62 60 59 57 52 39 23 14 10 8 8 10 16 19 20 25 29 32 30 27 29 30 25 20 19 21 29 38 47
27 27 28 28 26 26 27 24 21 24 24 19 22 25 18 17 22 20 19 29 40 47 43 35 38 40 37 40 42 40 39 40 38 31 29 29 29 32 35 40 47 52 53 53 51 52 57 56 48 46 43 36 32 32 34 36 38 41 42 46 51 54 57 60 63 66 68 69 67 64 63 61 59 47 27 14 9 8 5 10 26 27 19 26 35 32 25 22 20 21 21 19 18 18 22 28 33
29 28 26 25 24 25 26 23 21 24 23 20 24 29 24 19 18 20 26 30 32 42 41 32 33 36 36 38 40 42 41 42 41 35 30 29 30 33 36 40 46 52 55 55 55 55 58 61 54 46 44 42 37 33 34 37 38 41 43 46 51 55 58 60 63 65 65 65 67 69 69 67 63 48 26 14 10 8 5 8 22 24 14 19 28 27 26 25 23 26 28 23 25 26 20 22 29
29 28 24 23 23 24 23 22 24 23 21 24 27 29 27 20 20 25 30 31 27 29 28 23 23 27 29 30 33 37 41 44 44 37 32 31 32 35 40 47 52 58 60 58 61 64 65 69 66 59 53 44 37 33 33 36 38 40 44 46 52 56 57 58 60 61 59 59 65 72 74 71 65 46 22 13 9 7 8 6 13 25 20 13 19 25 25 21 20 26 32 36 44 43 28 24 28
28 26 23 22 20 23 22 21 22 21 23 30 29 29 26 20 25 30 27 27 24 22 22 21 20 21 23 25 28 32 38 44 45 40 35 33 34 37 43 51 53 52 54 55 63 69 73 82 86 83 74 57 41 35 33 36 39 41 43 46 50 54 57 58 57 54 53 60 67 72 77 76 68 45 19 12 10 6 9 5 9 28 29 16 16 20 17 16 16 19 32 47 52 50 45 41 33
28 25 23 21 18 23 26 21 19 19 24 33 32 30 24 20 27 28 22 23 23 22 22 21 21 21 21 22 25 30 37 44 49 46 40 36 37 37 41 47 45 42 44 48 56 63 70 84 90 88 86 76 59 46 40 39 42 44 45 46 48 49 52 52 53 53 54 63 69 74 81 82 73 48 19 10 10 6 8 7 8 20 22 16 15 16 15 15 17 22 34 44 42 43 51 54 47
26 23 22 20 18 21 23 19 18 18 22 31 34 29 21 22 29 26 21 24 23 22 23 21 22 21 21 22 22 25 32 40 48 50 45 39 37 37 38 43 45 46 51 51 52 55 60 71 80 80 81 79 69 56 46 44 48 50 50 49 47 49 54 55 62 69 68 70 73 77 81 78 71 50 19 9 10 6 7 8 9 13 14 15 15 15 16 14 18 28 31 28 25 27 34 39 39
26 25 22 21 18 19 22 23 22 22 22 27 31 27 24 29 33 26 22 25 22 22 23 21 21 21 20 22 22 23 26 31 39 46 47 41 37 37 39 44 47 49 56 61 57 55 57 64 72 77 75 73 69 62 55 54 57 59 59 58 57 62 71 76 81 84 79 77 78 79 75 68 67 52 21 9 10 7 7 8 10 12 12 14 14 13 15 12 13 19 17 15 16 16 17 19 19
27 26 23 22 22 22 23 25 25 24 22 24 28 27 27 31 32 27 25 26 24 24 23 22 22 22 21 22 22 23 23 26 31 39 46 47 44 45 46 49 51 51 57 64 61 59 62 66 71 75 73 68 69 72 70 63 59 59 64 67 69 75 83 91 95 92 85 82 81 79 70 63 64 48 20 9 9 7 8 9 10 12 12 12 12 11 11 11 11 11 11 12 13 12 13 13 12
26 26 23 23 25 24 24 24 24 23 22 25 29 27 25 25 29 32 30 28 27 26 25 25 25 24 24 23 23 23 23 24 27 32 42 50 51 52 55 57 59 62 65 64 62 61 60 64 71 74 73 65 58 58 56 50 45 46 54 61 64 75 88 96 98 93 86 84 82 73 61 60 59 37 14 10 10 7 8 9 10 11 11 10 11 11 11 11 12 12 12 12 12 13 13 13 15
25 24 24 24 24 23 24 24 24 25 24 24 27 26 23 22 30 40 36 29 29 29 28 29 28 28 28 27 26 25 24 25 25 28 36 50 58 60 65 67 67 71 72 66 64 61 58 62 68 70 75 70 56 45 36 33 31 34 50 61 55 60 78 91 95 90 86 88 82 63 53 58 51 26 12 11 9 8 9 9 10 10 10 12 14 17 20 21 23 24 26 28 30 32 32 34 36
24 24 24 24 24 23 24 24 23 23 23 24 26 26 23 24 34 41 36 31 30 30 32 32 32 32 31 30 30 30 31 31 30 31 37 50 63 69 73 76 75 71 67 64 63 60 58 59 57 61 70 63 47 36 28 25 24 27 48 62 54 50 63 80 90 89 87 89 81 61 52 57 46 22 13 13 10 10 10 9 11 12 15 21 26 32 36 39 42 44 46 49 50 52 54 56 57
24 24 23 24 26 25 25 25 25 22 20 23 25 25 28 32 34 33 31 31 31 32 36 35 35 37 36 37 39 40 42 42 42 44 46 50 56 62 64 68 75 73 63 61 63 63 59 52 50 59 58 39 26 24 22 23 23 23 33 45 50 55 64 74 82 82 83 88 85 70 59 57 46 25 15 14 13 13 12 13 15 19 26 35 41 46 50 51 54 54 54 56 57 58 58 59 60
24 24 23 23 24 23 23 24 26 25 21 22 21 23 34 38 31 29 32 32 32 39 43 40 43 47 43 43 47 48 50 51 50 50 50 49 49 51 52 55 67 75 67 63 65 64 61 58 59 58 40 22 20 23 21 22 22 22 24 31 39 45 51 62 69 71 78 87 88 79 66 56 47 32 22 17 16 18 18 19 24 29 38 45 48 52 53 54 56 56 56 56 56 57 56 57 57
Wind_Speed
13 13 13 14 15 14 13 13 9 11 13 13 15 12 9 13 12 7 4 4 7 9 9 9 9 9 7 5 7 9 9 7 7 8 6 5 5 8 9 8 9 7 7 9 10 11 11 11 12 12 13 14 14 14 14 13 13 12 12 11 11 10 10 10 10 10 9 8 7 6 5 4 4 4 4 5 5 5 4 4 5 9 14 18 22 21 19 18 18 18 18 18 19 18 17 16 15
12 12 12 12 13 12 11 13 8 9 13 14 15 13 9 11 11 4 2 3 7 8 8 10 8 8 9 6 8 7 7 7 7 8 6 6 7 8 8 8 7 6 5 7 9 10 10 10 12 13 13 14 15 15 14 14 13 13 12 12 12 11 10 10 10 10 9 8 6 6 5 4 4 4 4 4 4 4 5 5 5 8 13 18 21 21 20 19 18 18 18 18 19 19 18 16 15
11 11 12 11 11 12 11 13 11 10 13 14 13 13 12 9 7 2 0 3 6 8 8 8 8 9 11 10 9 6 7 10 10 8 8 8 8 8 8 8 7 6 5 6 8 9 10 11 12 13 14 14 15 15 15 14 13 13 13 12 12 12 11 11 10 10 8 7 7 6 5 5 4 4 3 3 4 4 5 6 6 7 12 16 20 22 21 20 19 19 19 19 19 19 19 17 16
10 10 11 11 9 10 10 12 12 12 12 13 10 9 12 10 6 3 2 5 6 8 9 9 10 11 12 11 9 6 9 11 9 8 9 8 8 8 8 7 7 7 6 6 8 9 10 11 12 13 14 14 15 15 15 14 13 13 13 13 13 12 11 11 10 9 8 7 7 6 5 5 4 4 3 3 4 5 5 6 6 7 11 15 19 21 21 20 20 20 19 20 20 20 19 18 16
9 9 11 11 9 10 10 11 12 14 13 11 8 4 7 8 5 4 4 6 8 10 11 12 10 10 9 7 8 8 9 10 8 8 9 8 8 9 7 7 7 6 5 5 6 7 9 10 11 12 13 14 14 14 15 14 14 13 13 14 14 13 12 11 10 9 8 7 6 6 5 5 4 4 4 4 4 4 4 5 5 6 10 14 17 20 21 21 20 20 20 21 21 20 20 19 17
8 9 10 11 11 12 12 11 13 16 14 9 5 3 7 5 4 5 5 5 8 10 12 14 10 8 7 6 9 7 7 10 10 9 10 9 9 10 8 6 6 5 4 4 5 7 9 10 11 12 13 13 14 14 15 14 13 13 14 14 14 12 11 11 10 9 8 7 6 6 5 5 4 5 4 4 4 3 3 4 4 4 8 12 16 19 21 22 21 21 21 21 21 21 20 20 18
7 9 10 11 11 12 13 13 14 14 14 12 7 5 4 3 4 6 5 4 6 9 12 13 9 6 6 8 9 7 8 12 11 11 11 10 11 10 9 7 5 5 4 4 6 7 9 11 12 13 13 14 14 14 14 13 13 14 14 14 13 12 11 11 10 9 8 7 6 6 5 4 4 4 4 4 4 3 2 3 3 3 5 9 15 19 21 22 22 22 22 22 21 21 21 21 19
8 9 11 11 10 12 13 14 14 12 11 14 12 9 8 7 7 7 6 5 7 9 11 12 9 6 7 9 9 10 11 11 11 12 11 11 11 9 9 7 5 5 5 6 7 8 10 11 13 14 14 14 14 14 13 13 14 15 15 15 14 13 12 11 11 10 8 7 7 6 5 4 4 4 4 4 4 3 2 2 3 3 4 8 13 17 20 22 23 23 22 22 22 22 22 21 20
8 10 11 11 10 12 13 14 13 12 10 11 11 10 11 10 10 10 7 7 9 10 11 12 10 8 8 10 10 12 12 9 9 11 11 11 11 9 9 8 6 6 6 7 8 9 11 12 13 14 14 14 14 13 13 14 15 15 15 16 15 14 13 12 11 9 8 7 6 5 4 4 3 3 4 4 4 4 4 3 3 5 5 6 10 15 19 22 23 23 23 23 23 23 23 22 21
9 10 11 10 10 12 13 14 12 11 10 9 7 6 8 9 11 12 9 9 10 11 12 11 10 9 9 10 10 11 10 8 8 10 10 11 11 9 9 8 8 8 7 8 9 10 12 12 12 13 14 15 14 14 14 15 16 16 16 16 15 14 14 12 11 9 8 7 6 5 4 3 3 3 3 4 4 4 4 4 4 5 4 4 7 12 17 20 23 23 23 23 23 23 23 24 22
10 12 12 11 12 13 13 12 11 9 8 7 5 6 7 8 10 12 11 10 12 13 12 11 11 11 10 9 9 9 8 7 9 10 9 10 10 9 8 8 8 8 8 9 9 10 11 10 11 13 14 15 15 16 17 17 16 17 17 16 15 14 14 12 10 9 8 7 6 5 4 3 3 3 3 4 4 4 4 4 4 4 4 4 5 8 13 18 21 23 24 23 23 23 23 24 24
12 13 13 13 13 13 11 9 8 7 6 6 4 6 8 8 9 12 11 11 14 15 13 12 12 12 10 7 7 8 7 7 9 10 10 9 9 9 9 8 8 8 8 9 9 9 9 9 11 12 14 15 15 16 17 18 18 17 17 16 14 13 13 11 10 9 8 7 6 5 4 3 3 3 4 4 4 4 3 3 3 3 3 4 4 5 9 14 18 21 23 23 23 23 23 23 24
12 13 14 13 12 11 10 9 8 7 7 7 5 7 7 7 10 12 12 13 16 17 14 14 13 11 10 8 8 8 8 8 9 10 10 10 9 9 9 8 8 9 8 9 10 9 8 9 11 12 14 15 15 16 17 18 19 18 17 15 13 12 11 10 9 8 8 7 6 5 4 4 3 3 3 3 4 4 4 4 4 3 4 3 4 4 5 10 14 17 20 23 23 23 22 22 23
13 13 14 13 12 11 11 10 8 8 9 5 6 9 7 7 9 11 13 15 19 18 16 16 14 11 9 9 9 9 8 8 9 9 11 11 10 9 9 9 9 9 8 10 11 9 8 8 10 12 14 13 13 14 16 17 17 17 17 16 15 13 11 9 8 8 8 7 6 5 5 4 4 3 3 3 4 4 5 5 5 5 4 4 4 5 5 6 10 14 17 20 22 23 22 21 21
15 15 14 13 13 12 13 11 8 9 8 4 5 8 7 7 8 12 15 17 21 21 17 16 16 12 9 9 8 8 8 8 9 9 10 11 10 10 10 10 10 9 9 9 9 9 10 10 10 12 13 12 12 13 15 16 16 15 16 17 16 14 12 10 8 8 8 7 6 6 5 4 3 2 3 3 3 3 4 4 5 5 5 4 4 4 5 5 7 11 15 18 20 22 22 22 21
17 16 13 14 14 12 12 11 8 9 7 3 6 7 5 6 8 12 18 20 22 22 18 16 15 13 11 10 9 9 8 8 9 9 10 10 10 11 11 11 10 10 9 8 8 9 9 10 10 11 11 11 11 12 15 16 17 17 17 18 16 14 13 11 10 9 8 7 6 6 4 3 2 2 3 3 3 3 3 4 4 4 4 4 4 4 5 6 6 8 12 15 18 20 21 22 22
18 16 14 16 15 13 12 11 9 8 6 4 6 9 5 5 8 12 15 18 21 21 19 17 15 13 11 10 11 10 8 9 9 9 10 10 10 11 11 11 10 9 8 8 8 8 8 8 9 10 10 9 11 14 17 18 19 19 19 18 16 14 13 12 10 9 8 7 6 5 4 3 3 2 2 2 3 3 4 4 4 4 4 4 3 4 4 6 7 7 9 12 16 18 20 21 22
18 17 17 17 15 13 11 9 9 6 4 3 6 11 8 6 10 14 14 15 19 20 17 17 15 14 12 12 13 10 9 10 10 10 11 10 10 10 10 8 8 9 8 9 9 9 9 9 9 11 11 11 13 14 16 18 18 18 18 17 16 15 14 12 10 10 8 7 6 5 4 3 3 3 2 3 3 3 4 5 4 4 3 3 3 3 3 4 7 9 9 10 14 17 19 20 21
20 16 17 18 13 13 13 10 10 8 6 4 6 10 11 10 12 14 13 13 16 17 15 15 15 15 14 13 12 9 10 10 10 11 11 10 10 9 9 7 8 9 9 10 10 10 10 11 12 13 14 14 13 11 12 16 17 17 17 16 17 17 15 12 11 10 8 7 6 5 5 4 4 3 3 4 4 4 5 6 5 5 4 3 3 3 2 3 5 9 11 11 12 15 17 19 20
20 18 18 17 13 14 16 14 12 12 11 8 7 10 12 14 14 15 13 13 16 14 13 15 15 15 13 11 9 8 9 10 11 11 11 11 11 10 9 9 8 9 10 10 10 10 10 12 13 14 14 12 11 10 10 12 14 14 15 16 16 16 15 13 11 9 8 6 6 5 5 5 5 5 4 4 4 5 6 6 6 6 5 4 4 3 3 3 4 7 11 12 12 14 15 17 19
20 23 18 12 17 17 14 14 13 14 15 10 9 9 9 14 16 16 15 14 16 13 14 16 14 13 11 8 7 7 8 10 11 11 10 11 11 11 11 10 10 9 10 11 10 9 10 12 12 14 13 9 8 10 12 11 12 12 13 13 13 13 14 12 10 8 7 6 6 5 5 6 6 6 6 6 6 6 6 7 7 6 5 5 5 4 4 3 3 3 8 11 12 13 14 15 15
20 24 20 16 21 16 10 13 14 14 16 12 11 9 9 15 15 18 19 12 13 15 15 17 14 13 10 7 7 7 8 9 11 11 10 11 12 12 12 11 11 11 11 10 10 9 10 11 13 14 12 9 9 10 13 13 12 12 12 12 10 11 13 10 8 7 6 5 5 5 6 7 8 8 8 8 7 6 6 7 7 7 6 6 5 5 5 4 3 2 4 7 10 12 13 14 14
21 19 22 25 24 17 12 14 14 15 17 15 13 12 13 16 12 18 21 10 13 17 16 16 14 12 9 8 8 8 8 9 11 11 11 13 14 13 12 10 10 10 10 10 10 10 10 12 13 12 11 11 10 10 11 11 12 13 13 12 10 9 9 9 8 6 5 5 5 6 7 8 9 10 10 9 8 6 7 7 7 8 8 7 6 6 5 4 4 3 3 4 6 9 11 12 13
21 16 20 25 23 21 17 15 15 16 17 17 17 15 14 14 10 15 19 14 16 18 16 15 13 11 8 8 9 9 9 10 12 12 13 15 15 13 11 10 10 11 11 10 10 9 9 11 12 10 10 11 11 10 9 8 11 14 13 11 10 8 9 9 7 4 5 5 6 8 9 10 11 13 13 10 8 7 8 8 8 8 9 8 6 5 4 4 4 3 3 3 4 5 8 10 11
24 20 18 22 22 21 18 17 17 18 19 18 18 16 14 15 13 14 16 16 18 17 16 15 12 10 8 8 8 8 9 11 14 14 16 16 14 13 13 13 13 12 12 11 10 8 9 10 10 9 10 11 10 10 10 8 8 9 10 7 8 9 8 8 5 3 6 7 8 10 11 13 14 15 13 9 7 8 10 10 9 9 10 8 7 6 5 5 4 2 2 3 3 4 4 5 6
23 22 17 20 21 19 18 19 18 18 19 19 18 15 14 16 16 15 16 17 16 16 15 13 12 10 9 9 9 9 10 13 16 17 17 14 11 13 16 17 15 14 13 11 10 8 9 11 11 10 11 10 9 10 10 10 5 3 5 6 8 7 4 3 3 4 7 8 11 13 13 14 15 15 13 10 7 8 11 12 10 10 11 11 10 9 9 8 7 5 3 2 3 3 2 1 1
19 20 19 21 19 19 19 19 18 18 20 20 18 13 13 17 16 13 16 18 15 15 14 12 11 10 10 11 11 12 13 15 17 18 16 13 12 14 17 16 15 15 15 14 13 11 12 13 13 12 11 10 9 7 6 7 7 5 5 5 4 2 2 3 5 6 8 11 13 13 14 14 14 13 11 10 8 9 12 12 10 11 13 14 12 11 10 9 8 6 4 3 2 2 1 1 2
19 19 19 22 20 20 22 20 18 18 17 19 18 13 15 19 17 14 16 18 17 15 14 13 11 11 12 13 14 15 15 16 16 15 12 11 13 14 16 15 13 13 14 15 17 16 15 14 13 12 11 11 9 6 3 2 4 3 1 1 2 4 4 5 6 6 9 13 12 13 14 13 13 11 8 8 8 10 11 9 10 11 13 13 11 9 8 6 6 7 5 3 2 1 0 1 1
21 20 16 16 17 19 21 19 18 17 15 18 18 15 17 20 18 17 18 18 17 16 14 13 12 12 14 16 17 17 16 16 14 13 10 10 12 13 15 15 13 12 12 14 19 20 18 14 13 12 12 12 10 6 4 1 1 2 3 3 3 4 5 6 6 6 10 12 11 13 16 14 12 10 7 8 10 11 11 10 11 11 12 13 10 8 8 7 7 7 5 3 3 2 1 1 2
19 19 14 12 14 17 19 19 19 18 16 19 17 15 18 20 20 19 19 17 15 15 13 12 11 12 16 18 19 18 16 14 11 10 10 9 9 11 14 14 13 12 12 16 19 21 20 15 14 13 12 12 10 7 5 4 2 1 2 3 3 4 5 6 5 5 9 11 11 13 16 16 12 8 7 9 10 11 12 12 11 11 12 11 8 7 6 6 6 6 4 4 3 2 2 2 2
15 14 14 15 14 14 16 18 19 18 18 19 15 15 16 16 20 22 20 17 14 14 13 12 11 13 18 20 20 18 16 13 10 10 10 9 9 11 14 15 14 14 15 18 19 21 21 16 15 13 10 9 10 8 6 5 3 2 1 2 3 4 5 6 6 6 8 11 13 12 13 15 11 6 7 10 11 11 11 12 12 11 11 9 7 10 7 4 3 3 4 4 3 3 3 3 3
14 14 15 17 15 12 12 15 18 17 17 18 15 15 15 12 17 21 20 17 15 14 14 14 12 15 20 22 21 18 16 13 11 12 11 10 9 11 14 15 15 16 17 19 20 21 20 17 15 13 10 8 9 9 7 6 4 3 1 1 3 4 5 6 7 7 7 10 14 13 12 14 12 9 10 11 10 10 10 11 12 10 10 9 8 10 9 5 3 3 3 3 3 4 4 4 5
15 17 15 15 17 14 11 12 17 17 15 17 18 16 12 9 13 16 19 18 17 17 17 15 14 18 23 23 21 18 16 14 12 12 11 10 10 11 14 16 17 18 19 21 21 20 19 17 15 14 12 10 10 9 8 7 5 4 2 2 3 4 6 7 8 7 7 7 10 12 12 12 12 12 12 10 9 9 9 11 12 10 9 10 8 9 9 5 4 4 3 3 3 4 5 6 6
16 18 15 13 15 15 12 11 15 19 17 15 17 18 13 9 10 14 18 18 18 18 18 18 17 21 25 23 21 19 16 14 12 12 10 9 10 10 13 17 18 19 20 21 21 18 18 18 17 17 14 11 11 11 9 8 7 5 4 4 4 6 7 8 9 9 9 8 7 8 9 10 10 12 13 11 9 9 9 11 11 9 8 9 9 9 9 5 5 4 3 3 3 3 5 7 7
14 17 17 12 13 15 13 10 12 17 18 16 16 18 16 12 10 13 17 18 19 19 20 19 19 23 25 24 22 20 17 15 13 12 10 10 11 11 13 17 19 19 20 20 18 16 17 17 18 18 16 12 12 12 10 9 8 6 5 4 5 6 7 8 9 11 12 12 11 10 9 7 6 8 12 12 11 10 9 9 11 10 10 10 10 9 8 7 7 6 4 4 3 4 5 7 7
12 14 15 13 12 15 14 9 10 14 15 16 16 15 16 15 13 14 16 18 20 21 20 20 21 25 25 24 23 21 18 15 14 13 11 11 12 12 14 17 18 19 19 19 17 15 17 16 15 14 15 13 13 12 11 10 8 7 5 4 4 5 6 8 10 12 13 14 15 14 12 10 7 5 10 13 13 12 10 10 12 12 13 12 11 10 9 9 9 7 6 5 5 5 6 7 7
9 11 12 13 11 13 14 10 10 14 13 14 16 15 15 15 14 15 17 19 23 24 23 22 23 26 26 24 23 21 19 16 15 13 11 12 13 14 15 17 19 20 20 19 17 15 16 16 12 11 13 13 13 13 12 11 8 7 5 3 2 3 5 7 10 11 13 14 15 15 15 13 10 6 6 10 13 14 12 12 12 13 14 13 11 10 9 10 10 9 8 7 7 7 7 7 8
9 10 11 12 12 11 11 10 11 12 12 12 13 14 15 15 16 18 19 20 24 26 27 25 25 27 26 25 23 21 20 17 15 13 11 11 13 15 16 17 19 20 19 18 17 15 15 15 15 14 14 14 14 14 12 11 9 8 5 3 1 2 4 7 10 11 12 13 14 15 15 14 12 9 6 6 10 13 13 12 12 13 13 13 11 11 10 11 11 10 10 9 8 9 9 8 9
11 11 11 12 14 12 9 10 11 9 10 11 10 12 14 17 22 23 22 22 21 22 26 25 25 28 27 25 22 21 20 18 16 13 11 10 11 14 16 17 20 21 19 19 18 17 15 13 12 14 15 14 14 13 12 11 10 8 5 3 1 2 4 6 9 11 12 12 13 14 15 15 13 11 8 6 7 11 12 12 12 12 13 13 12 12 12 12 13 12 12 10 10 10 10 9 11
13 12 13 12 12 13 10 11 12 9 9 10 9 11 14 19 25 27 25 25 22 19 23 24 25 28 27 24 22 21 22 19 16 14 12 10 10 14 16 17 20 22 20 20 19 16 14 11 9 11 14 14 14 13 12 11 9 7 6 3 2 2 4 6 8 10 12 12 12 13 15 15 14 12 10 7 5 7 10 12 14 15 16 15 13 13 13 13 13 13 12 11 11 11 10 11 12
15 15 15 12 11 13 8 8 11 9 8 8 9 12 14 18 23 27 27 26 24 20 20 23 26 28 28 26 24 23 22 19 16 14 12 12 11 13 17 18 21 23 21 21 18 13 13 12 11 12 14 14 14 13 12 11 10 8 6 4 4 4 5 6 8 10 11 12 12 13 14 16 15 14 12 9 7 6 7 9 11 14 16 17 16 15 14 13 13 13 13 13 12 11 11 12 13
15 17 18 13 10 11 7 4 8 10 11 10 11 11 11 15 18 22 25 25 22 19 19 23 27 30 30 28 26 24 22 18 16 15 13 13 12 14 17 19 22 23 22 21 17 13 12 12 12 14 17 16 15 14 13 12 11 10 7 6 5 5 6 7 8 10 12 13 13 13 15 16 16 16 14 11 9 7 6 6 8 10 12 14 16 16 16 15 14 14 15 14 14 13 12 13 14
13 16 20 16 10 9 8 6 8 11 10 8 13 11 7 14 16 18 23 22 19 18 19 24 28 30 30 28 26 23 20 17 16 15 15 15 14 15 17 19 22 23 22 21 18 14 13 13 13 16 19 18 17 15 14 13 12 10 8 7 6 6 7 8 9 11 12 13 14 14 15 15 16 16 15 13 10 8 6 5 6 7 8 10 12 14 15 14 15 15 16 16 15 14 13 14 14
11 12 17 16 14 10 8 9 10 9 5 6 12 11 8 14 16 19 23 20 17 17 19 24 28 30 30 27 24 21 19 17 16 16 15 16 16 16 17 18 21 22 21 21 20 15 13 14 15 18 20 20 19 17 15 14 13 11 10 8 7 7 8 10 10 12 13 14 15 16 16 15 15 16 15 13 11 9 6 4 4 5 6 7 9 10 11 12 13 14 14 14 14 14 14 14 14
9 12 16 14 13 11 9 10 11 7 6 9 12 10 10 12 16 20 23 19 17 17 18 22 27 30 29 24 21 20 20 18 18 18 17 17 16 17 17 18 20 22 21 22 21 17 15 16 17 19 21 21 20 19 18 16 14 13 11 8 8 8 9 10 11 13 14 15 16 17 18 16 15 15 15 13 11 9 6 4 4 4 5 6 7 8 9 10 11 11 11 12 12 13 14 15 15
9 11 14 12 11 9 8 11 11 8 10 12 11 10 10 8 14 19 19 17 16 14 16 20 24 28 27 24 21 21 20 20 21 21 20 19 18 18 19 19 21 21 21 22 23 20 18 18 19 20 22 22 22 22 20 17 15 13 11 8 9 9 10 11 12 13 15 16 17 18 19 18 16 15 15 14 11 9 6 4 3 3 4 5 6 7 8 8 9 8 8 8 9 10 11 12 13
12 11 13 12 10 8 7 10 10 8 10 10 10 10 9 6 13 17 14 16 16 12 13 19 22 25 25 24 23 22 21 22 22 22 21 21 20 21 21 20 21 22 21 22 24 23 21 19 20 21 23 24 24 24 21 18 16 14 11 10 11 11 12 12 13 14 16 17 18 19 19 19 17 15 14 13 11 8 6 3 3 3 4 5 6 6 7 7 7 6 6 6 7 7 8 9 10
14 12 14 13 10 10 10 10 10 9 8 8 10 10 10 7 10 13 12 17 21 17 16 19 21 23 25 26 26 24 23 23 23 23 22 22 22 22 22 22 23 23 23 24 26 27 25 22 23 24 25 25 24 23 21 18 16 13 11 12 13 14 14 14 15 16 18 19 19 20 19 18 17 15 12 12 10 8 6 3 3 4 4 6 6 6 7 7 7 6 6 6 6 6 7 8 9
15 14 15 13 10 9 10 9 9 10 5 6 9 10 11 9 9 14 15 18 22 20 18 18 17 18 21 24 26 27 26 24 25 26 24 23 23 23 24 25 25 25 26 28 30 32 30 25 25 25 25 24 23 22 20 18 15 14 14 15 15 15 15 16 18 19 20 21 20 21 20 18 16 14 11 10 9 7 5 4 4 4 5 6 7 7 8 8 8 8 8 8 8 8 7 7 8
18 17 17 13 9 7 7 7 8 9 4 6 8 8 10 10 11 17 20 18 19 18 17 16 14 14 14 16 21 26 28 27 26 27 26 25 25 25 27 28 27 26 27 28 29 30 29 25 23 25 24 23 22 21 20 18 17 17 17 17 17 17 17 19 21 22 23 22 21 22 21 17 15 13 10 9 8 6 4 4 5 5 6 6 7 8 8 9 9 9 10 10 10 10 9 9 9
19 17 16 15 11 7 7 6 7 9 6 7 8 7 10 11 10 17 20 18 18 18 17 16 14 14 13 12 14 19 26 29 28 28 29 29 28 28 29 27 26 27 26 25 26 26 26 23 21 19 17 17 19 19 19 19 18 18 17 17 18 19 19 19 20 22 23 22 21 20 17 13 13 12 9 7 6 5 4 4 5 6 6 7 7 8 8 9 10 10 10 11 11 11 11 11 11
19 15 14 15 13 9 5 3 4 5 4 7 9 7 7 7 9 17 21 19 19 19 18 18 16 15 15 14 13 14 18 25 30 32 31 32 32 30 28 26 27 28 26 23 23 23 23 22 20 16 13 12 13 15 16 17 15 14 15 16 18 19 18 16 18 21 21 19 18 16 12 11 12 12 9 6 5 4 4 4 5 6 6 7 7 8 8 9 10 10 11 12 12 12 12 12 11
16 19 17 14 12 8 5 4 3 5 5 6 10 10 8 7 9 18 22 20 20 20 19 19 18 18 17 17 16 16 16 19 26 32 34 34 34 32 29 27 27 29 27 24 23 23 22 20 18 15 12 11 10 10 11 12 10 10 12 14 15 16 15 14 16 18 17 16 14 12 11 11 12 11 8 5 4 4 4 5 5 6 6 7 7 9 9 10 11 11 12 13 12 12 12 11 11
12 17 17 14 12 10 10 7 4 6 7 5 9 13 13 11 11 15 19 19 20 19 18 18 18 18 19 18 19 20 19 20 22 28 34 35 35 34 31 28 28 27 26 25 23 24 25 21 16 13 10 11 8 8 8 8 8 9 11 12 13 13 13 13 14 14 14 13 12 10 11 12 11 9 7 4 3 4 4 5 5 6 7 8 9 11 12 12 13 14 15 15 15 14 13 13 13
15 12 13 14 12 11 12 10 6 7 7 6 9 13 15 14 11 13 17 19 19 18 17 16 16 17 18 20 22 23 23 23 22 25 30 33 34 33 31 31 30 26 24 25 23 24 27 24 15 11 6 6 5 5 7 7 9 9 9 10 11 11 9 10 11 12 12 11 10 11 12 12 9 7 5 3 3 4 5 5 6 8 9 10 11 12 13 13 14 15 16 16 16 16 15 15 14
21 15 12 15 14 11 12 11 9 8 7 6 8 10 12 12 11 15 19 21 20 18 17 15 14 15 17 18 19 20 20 21 21 21 23 27 29 29 27 27 29 28 27 27 24 23 25 23 13 9 8 4 2 5 6 7 8 8 8 10 11 10 9 10 10 11 11 9 10 13 13 12 8 6 4 3 4 5 6 7 8 10 11 11 12 13 13 13 14 15 15 16 16 16 16 15 14
20 19 16 16 14 12 11 11 12 11 7 6 7 7 9 11 13 17 21 22 20 18 16 14 13 12 13 14 14 14 14 14 14 12 12 15 18 21 21 22 26 30 32 32 29 28 27 21 12 6 8 7 6 5 5 5 5 5 6 8 9 10 10 11 11 11 10 10 12 14 14 12 9 6 5 5 6 6 7 9 10 11 12 12 13 14 14 14 14 14 14 15 15 14 14 14 12
17 19 19 18 18 16 12 10 13 13 11 8 8 6 6 14 19 19 19 19 17 16 14 12 11 12 13 14 14 15 14 12 11 9 8 8 9 12 14 16 19 25 28 28 29 30 27 20 11 7 8 7 6 6 5 5 4 3 4 5 6 8 9 10 11 10 10 10 12 14 15 14 11 8 7 8 8 9 9 10 10 11 12 13 13 14 14 14 14 13 13 13 13 13 12 12 11
Wind_Direction
237 237 233 231 229 224 220 203 205 207 213 238 231 235 234 225 225 224 272 259 236 237 229 236 240 220 192 182 187 186 189 188 196 202 204 189 170 167 175 181 182 184 173 178 196 211 221 226 230 232 229 223 220 217 209 200 192 183 177 172 166 161 158 156 152 150 145 139 132 125 116 100 81 72 70 76 98 115 133 148 159 179 182 183 186 187 184 179 175 172 168 163 159 157 153 147 145
237 237 231 231 226 216 212 197 204 217 214 235 234 229 227 227 225 218 292 246 240 238 226 226 228 203 176 165 165 161 168 164 159 161 156 143 132 134 151 164 169 170 169 180 193 206 217 226 233 237 233 228 224 219 213 204 196 188 182 175 171 168 165 163 159 157 152 144 139 136 124 104 84 71 62 59 78 104 122 141 152 173 182 186 189 190 188 183 179 175 172 169 164 161 158 153 152
237 234 227 224 220 212 205 194 210 228 217 233 235 219 224 224 202 181 286 234 236 219 206 202 189 170 156 151 149 154 161 146 142 141 132 129 126 125 140 159 162 162 170 186 196 204 215 228 235 238 236 231 226 220 215 207 199 191 186 180 175 173 172 168 164 161 157 152 149 145 128 108 93 79 68 56 50 72 102 125 144 166 182 187 191 193 192 188 182 179 176 174 170 166 164 160 159
236 230 223 214 210 207 197 199 219 237 228 235 230 203 217 214 191 202 205 216 207 179 172 165 160 157 152 154 149 151 158 146 144 142 134 132 129 132 141 159 162 164 174 186 203 213 224 235 241 242 240 235 228 220 216 209 202 195 189 183 179 177 175 171 167 165 164 160 156 148 132 122 112 96 73 59 43 43 73 106 131 158 180 187 193 196 196 193 187 183 181 179 176 172 170 166 165
234 224 222 205 193 196 195 212 224 233 233 234 237 187 192 194 188 205 197 203 184 165 161 149 147 160 157 166 167 156 157 150 145 137 134 134 131 136 142 160 165 167 180 196 217 234 240 244 246 245 243 237 229 221 217 212 204 197 193 187 181 179 177 174 171 170 170 164 158 151 143 138 124 100 74 58 49 40 60 95 114 146 174 187 194 198 199 197 192 188 185 184 181 178 176 173 172
232 221 218 198 194 200 199 219 222 228 233 238 255 161 164 180 188 193 197 198 178 171 163 154 154 172 172 180 176 162 154 144 138 133 132 134 132 137 141 152 165 174 191 220 237 247 248 247 244 243 241 236 230 223 218 213 204 198 195 191 184 181 179 176 173 174 174 164 160 160 153 139 116 95 80 69 68 55 64 95 105 135 169 184 193 199 201 201 198 193 189 189 186 182 183 181 178
227 213 206 196 203 205 204 225 225 226 231 235 235 167 175 247 217 192 203 212 193 184 175 170 159 162 175 176 172 158 146 137 131 133 134 133 130 137 146 143 156 183 205 226 239 244 244 244 242 242 239 233 229 223 218 212 203 198 196 191 187 183 181 178 177 178 176 167 165 167 157 135 115 103 96 91 94 93 77 107 129 134 170 186 193 199 202 203 202 199 194 192 191 187 187 188 184
215 205 197 188 204 209 214 232 231 229 232 236 234 227 247 261 232 214 209 204 205 200 193 191 176 171 177 171 165 148 140 129 123 131 131 133 131 134 146 147 159 185 203 217 229 239 243 245 244 241 237 232 228 223 218 210 202 199 196 191 187 184 184 181 179 179 175 169 169 172 162 144 124 110 108 107 110 119 112 134 151 164 199 191 192 199 203 205 204 203 199 194 194 193 190 192 190
209 203 193 185 206 218 225 236 234 235 240 243 243 249 255 251 234 224 215 205 208 206 203 205 196 188 174 164 157 143 139 124 115 128 129 131 135 134 143 154 170 189 204 216 223 232 241 243 242 242 239 235 230 227 220 211 204 200 196 190 186 184 183 180 177 175 173 172 175 178 170 147 126 114 111 113 115 118 128 163 178 193 209 193 193 200 202 206 207 206 203 198 197 198 195 193 195
203 197 192 194 214 223 229 233 232 236 241 243 249 265 262 248 231 220 217 213 212 207 201 200 191 178 166 164 158 143 134 123 119 128 129 130 138 142 149 159 169 190 209 219 224 230 239 241 242 244 241 238 234 230 222 213 205 198 195 191 186 183 180 175 171 170 172 175 180 185 176 148 131 129 119 113 114 119 140 174 190 197 204 189 195 200 202 204 207 208 206 202 199 201 201 196 196
198 203 198 203 219 224 228 230 226 232 240 240 252 274 264 243 226 220 217 210 209 206 196 187 177 166 159 160 160 150 137 131 129 129 131 131 138 144 154 164 169 187 207 221 229 231 237 240 246 250 246 242 237 232 222 212 205 198 193 190 187 183 177 171 168 168 173 177 183 189 180 160 152 141 125 117 117 127 148 175 187 190 189 184 189 200 203 203 205 209 208 206 202 202 205 202 199
196 210 204 208 223 226 230 236 229 229 236 228 245 279 267 241 224 220 216 205 204 207 196 186 180 165 162 165 164 160 148 146 137 134 137 135 137 142 153 166 173 187 203 217 225 228 233 238 244 251 249 242 241 240 228 212 204 198 191 189 186 181 175 168 167 169 174 179 186 194 189 178 166 145 127 125 128 134 147 167 181 184 186 183 176 189 205 205 204 207 208 207 205 204 207 206 203
196 208 208 217 229 230 236 242 236 237 231 217 237 267 269 245 227 217 212 203 199 206 200 190 184 169 174 178 174 171 159 154 142 140 142 139 142 142 152 166 177 190 200 209 217 222 227 236 239 243 244 243 246 245 234 217 205 196 187 184 180 178 174 166 168 173 177 185 191 198 200 187 167 146 133 136 140 142 157 174 183 191 196 191 177 176 195 207 205 205 208 208 207 205 207 209 207
199 206 212 225 236 236 239 238 236 236 216 198 242 249 250 246 231 215 209 203 196 202 200 187 179 171 182 190 186 180 167 157 147 149 149 146 150 146 153 167 179 188 195 207 215 216 219 232 234 233 234 239 244 238 229 218 207 197 185 178 173 173 172 166 172 178 183 192 200 204 203 187 162 148 142 151 154 159 177 185 189 195 207 209 191 183 184 200 205 204 205 207 208 207 206 208 209
203 206 212 229 239 236 235 233 232 228 199 168 234 229 229 227 220 211 203 200 195 193 191 179 175 174 179 191 191 178 168 160 157 160 157 157 157 155 162 171 179 184 191 204 214 213 214 222 220 223 228 233 236 227 219 210 199 193 186 176 170 172 171 168 174 184 193 198 207 208 200 181 163 160 162 171 175 187 198 197 201 204 214 220 209 199 194 194 201 202 204 206 208 209 208 207 207
206 207 213 230 236 231 229 225 225 224 190 152 211 200 201 203 200 203 196 196 192 184 180 174 173 172 167 175 177 169 167 167 168 169 166 167 165 164 170 177 181 183 190 196 206 214 219 222 213 216 226 226 223 215 208 199 187 183 186 180 171 171 170 169 176 189 196 201 208 204 193 179 175 186 186 190 197 215 225 223 225 226 228 232 229 222 212 207 207 203 204 206 207 209 210 209 207
208 207 216 229 229 227 225 216 213 208 166 133 188 173 155 177 177 177 177 183 183 177 174 172 167 165 162 160 163 163 169 177 179 176 175 176 170 169 176 184 183 184 191 189 200 209 218 227 213 214 223 214 205 202 198 190 183 182 186 181 170 170 171 170 178 189 195 202 206 196 188 184 196 209 201 210 229 241 249 247 244 244 243 246 245 241 235 222 219 215 208 207 209 210 211 210 209
208 208 219 227 227 226 220 213 213 196 152 136 168 165 148 147 155 150 150 159 168 168 165 164 163 161 157 151 154 157 166 178 181 177 179 180 174 171 176 185 181 185 193 189 195 198 205 214 210 214 214 205 203 202 195 190 188 185 185 182 173 173 173 171 176 186 196 201 197 189 193 202 211 215 208 226 242 252 260 262 257 256 255 257 265 267 260 240 229 225 218 212 211 213 213 211 210
208 211 225 228 227 226 218 215 214 203 187 168 166 170 155 147 148 142 145 151 156 161 161 160 158 153 150 148 147 149 161 175 180 177 181 181 176 172 173 178 177 184 193 194 195 194 199 202 205 215 212 204 201 199 196 193 189 182 182 185 182 177 170 171 178 187 195 196 194 193 203 218 226 227 227 233 243 251 257 265 264 261 261 262 270 279 284 268 243 231 226 220 214 214 215 213 212
209 213 224 230 230 229 227 226 218 204 192 178 172 169 157 154 152 144 149 153 150 156 160 154 150 146 146 146 142 144 161 176 181 183 188 186 181 179 176 177 179 184 191 196 196 193 200 200 202 215 219 206 187 191 203 195 187 180 180 184 185 176 166 172 180 187 194 195 202 205 215 232 240 243 247 255 256 257 257 261 261 258 258 256 259 265 276 284 264 238 229 226 221 219 218 215 213
215 219 220 235 236 230 235 231 219 206 194 185 176 168 161 159 156 149 150 155 154 159 160 152 149 147 144 141 140 148 164 178 186 191 197 196 192 188 184 181 181 187 192 197 194 195 204 203 204 213 218 208 183 196 207 199 188 183 179 180 187 177 165 173 184 187 194 200 211 219 230 239 247 250 254 262 260 263 266 264 265 264 264 259 256 261 268 282 286 249 231 227 224 223 222 220 215
216 223 218 228 232 223 231 229 215 206 197 189 182 183 178 162 156 152 149 161 168 166 164 158 158 153 148 147 148 156 166 177 188 195 202 203 200 194 192 188 185 189 192 193 192 198 202 204 211 213 212 203 194 201 205 200 189 184 180 178 194 189 169 173 184 189 201 211 223 232 242 247 252 254 251 255 257 262 266 269 271 269 267 263 260 264 272 285 290 280 243 233 229 228 226 224 221
216 228 228 230 232 223 222 226 215 210 203 198 194 196 185 166 160 157 154 168 175 165 163 163 165 161 159 164 158 161 170 177 184 194 202 201 198 192 191 189 190 194 192 190 194 199 199 205 215 213 209 200 193 202 208 198 183 184 186 179 189 199 184 180 183 192 214 228 243 248 253 256 256 254 250 249 251 255 261 265 266 264 263 263 264 269 276 279 270 268 267 256 248 242 238 235 233
217 227 240 237 235 230 225 224 217 215 212 208 202 197 190 177 175 168 162 169 170 164 164 166 170 167 167 171 167 169 173 180 186 192 201 199 191 187 188 189 194 195 189 190 195 198 197 206 214 207 202 197 191 203 212 202 188 185 184 179 180 191 197 195 184 192 230 247 259 259 260 260 256 253 247 242 247 255 256 256 255 256 259 260 262 261 258 247 241 252 262 274 286 272 256 248 246
221 220 240 241 236 234 229 224 218 217 218 216 208 200 200 193 185 179 171 172 173 170 167 169 173 170 174 182 181 181 179 187 192 194 202 201 187 184 191 192 195 192 186 190 193 196 197 202 208 197 193 190 188 203 205 199 203 187 175 179 186 190 199 203 188 206 242 254 260 261 260 258 257 259 254 246 249 256 254 250 247 250 252 252 248 238 225 214 211 202 225 255 278 294 283 256 249
229 222 232 242 239 239 232 225 221 221 222 220 213 209 213 204 191 189 187 183 181 180 177 176 180 178 182 190 189 183 185 193 196 199 204 207 197 197 200 195 193 187 181 185 190 196 191 187 189 187 192 190 188 208 204 182 178 190 186 195 201 198 206 230 247 244 252 260 259 258 257 257 260 262 263 267 269 261 252 244 240 242 243 238 226 218 211 199 187 176 177 196 230 260 292 305 255
231 223 228 238 237 239 232 224 224 224 224 221 215 220 225 209 197 202 204 197 192 191 190 189 191 192 192 193 192 186 187 193 202 209 211 215 209 210 216 211 199 187 183 184 184 190 183 177 182 186 194 192 182 200 211 174 159 178 196 201 217 248 291 273 269 263 266 261 257 261 264 267 269 266 273 292 295 271 257 250 251 250 245 238 220 210 210 196 172 161 164 160 178 225 268 29 72
225 222 230 238 237 240 234 226 227 225 226 224 218 226 232 215 203 211 214 204 201 201 199 200 203 206 203 195 193 191 192 195 204 213 217 220 213 216 228 225 210 199 200 190 177 179 178 176 182 185 190 185 169 165 191 197 164 160 154 330 297 306 304 283 280 280 272 265 268 277 275 273 273 276 292 303 291 278 274 272 267 259 253 249 231 214 208 191 165 152 157 168 166 165 135 93 111
225 226 231 241 241 242 237 231 230 225 224 223 219 227 232 221 211 213 213 206 205 207 204 205 207 209 205 195 192 193 196 200 206 209 213 222 218 219 222 218 212 210 216 199 176 172 175 176 178 182 187 177 156 147 147 113 55 49 359 319 305 311 313 306 299 290 277 275 282 284 283 281 278 294 316 298 282 279 279 272 263 259 251 246 239 220 196 187 176 158 161 183 182 177 162 159 160
223 228 228 231 238 241 234 229 228 223 221 218 217 227 229 221 216 217 214 209 211 211 208 208 210 209 201 194 192 193 198 202 204 204 209 220 217 210 207 206 206 207 216 205 180 170 172 175 173 177 189 173 145 138 135 123 110 79 301 296 320 335 333 326 321 307 286 280 279 281 288 292 293 313 314 287 278 275 270 264 262 260 250 242 249 249 217 192 176 158 174 200 191 197 190 192 190
214 223 227 225 234 234 218 223 225 219 219 215 211 228 231 215 213 222 220 213 214 213 211 213 213 209 201 194 190 192 198 200 195 197 208 216 207 195 192 193 197 202 207 201 185 172 170 173 170 170 182 164 137 136 138 141 154 173 225 291 342 347 339 334 331 319 297 286 284 283 285 289 300 312 282 272 275 271 265 260 259 260 255 249 255 260 247 214 194 176 191 205 193 198 201 214 225
204 212 221 220 226 218 201 222 221 209 219 214 204 226 233 207 207 222 222 217 216 213 212 211 209 207 201 194 190 191 195 195 191 196 209 212 204 197 190 188 193 198 197 192 188 178 167 166 168 166 168 151 137 139 145 151 155 163 185 2 5 354 351 348 344 336 318 297 291 288 278 278 289 286 271 274 274 265 259 256 256 257 258 255 249 255 251 225 219 218 206 208 197 197 205 220 230
203 212 219 213 215 215 205 220 213 201 211 210 207 222 227 208 209 216 217 218 216 214 217 213 207 205 200 193 190 191 191 191 190 197 210 212 208 204 195 191 191 192 189 188 192 182 162 162 171 169 162 150 144 147 151 156 158 155 135 65 35 20 19 16 9 2 350 325 304 295 286 279 278 275 270 270 264 254 257 258 253 248 250 257 257 260 260 240 223 225 216 222 215 207 211 220 225
201 209 218 212 209 216 207 203 208 204 205 208 214 222 224 222 222 212 208 212 209 209 217 214 206 202 198 192 191 192 190 188 190 199 207 207 209 202 192 191 187 186 186 188 195 185 158 163 181 174 159 151 152 155 159 160 159 147 121 88 61 44 38 32 25 19 11 4 347 321 304 289 275 269 265 265 262 255 258 259 255 247 244 254 258 259 263 256 236 231 226 230 228 224 224 228 229
199 201 210 212 207 216 210 197 204 204 205 210 214 220 225 230 228 214 206 205 203 206 212 211 204 200 196 192 192 192 190 188 190 200 201 197 201 197 188 186 182 181 184 188 195 184 161 173 193 173 148 150 158 159 163 162 156 142 117 96 74 54 44 36 28 23 16 12 7 358 342 321 288 262 257 261 263 260 257 256 256 252 244 243 244 246 249 245 235 229 226 223 221 231 235 240 240
204 200 205 211 205 210 210 199 193 191 200 212 214 220 227 229 227 223 217 207 204 206 208 208 203 198 195 193 193 192 191 190 191 197 196 191 192 192 190 185 182 181 184 189 193 187 173 181 197 168 140 150 163 163 166 164 157 146 130 112 85 57 43 32 26 20 14 11 8 4 359 352 337 281 251 251 255 256 253 250 251 250 246 242 237 235 232 235 236 231 228 222 217 228 239 248 252
198 199 205 210 207 207 203 199 196 193 202 216 219 224 229 230 224 223 224 210 206 208 207 207 202 196 195 195 195 192 191 192 192 195 194 191 189 189 191 187 185 185 187 189 192 196 185 176 178 157 142 155 167 169 170 169 167 162 156 144 100 50 34 25 21 18 11 7 5 3 2 359 353 335 276 256 255 255 252 249 249 248 247 245 241 236 229 233 240 237 233 226 220 227 235 244 251
197 202 207 208 210 208 193 196 205 201 211 220 219 226 230 227 220 222 225 210 206 210 209 208 202 197 197 197 195 192 193 194 191 193 193 192 191 189 191 189 187 188 188 186 189 200 195 179 168 153 150 163 171 175 176 177 181 179 179 176 137 32 25 19 17 15 8 2 1 1 2 0 356 348 325 279 260 257 255 248 245 244 245 244 239 235 228 228 234 235 233 226 218 222 228 233 239
206 205 208 211 209 203 190 201 210 201 211 221 220 224 225 224 223 224 222 211 206 209 209 209 203 199 199 198 195 192 195 196 190 191 191 188 192 191 191 191 186 188 189 185 189 201 204 195 175 155 157 169 177 182 185 188 191 191 197 201 208 8 13 10 7 5 2 357 355 356 358 0 358 352 340 313 268 252 249 243 240 241 245 245 239 233 228 225 227 229 230 225 215 214 216 220 229
211 207 209 210 200 201 203 199 204 203 206 219 227 225 227 230 225 218 216 211 208 206 204 206 203 199 199 197 194 194 198 196 189 192 189 184 190 191 191 191 187 189 189 185 189 202 208 210 196 171 169 177 184 190 194 195 197 203 213 224 263 320 340 347 349 349 350 351 349 349 352 357 358 355 347 331 299 261 251 246 243 244 246 247 243 237 233 230 229 229 229 222 212 208 207 213 225
212 211 212 211 198 207 214 185 193 209 211 217 226 224 223 225 218 211 211 210 207 206 202 203 202 198 197 195 193 196 200 196 190 192 189 185 188 189 191 190 190 192 190 185 188 199 207 211 206 191 183 186 191 194 197 199 204 214 223 238 266 292 310 321 330 333 338 342 344 345 346 350 352 354 350 339 323 291 266 253 247 244 243 243 242 240 238 235 233 231 228 224 222 220 218 220 227
212 212 214 216 206 209 218 183 189 211 217 211 214 222 209 198 201 204 206 204 203 207 205 203 201 197 194 192 193 196 199 195 191 193 192 188 187 189 191 191 193 195 191 188 189 194 204 210 208 194 188 191 196 196 197 203 211 222 230 246 265 284 300 311 321 325 329 333 337 340 340 342 345 349 349 343 333 312 285 263 249 242 239 238 239 240 239 237 237 237 236 236 237 235 232 231 232
216 212 210 213 212 207 207 201 203 215 218 198 204 226 205 179 187 197 198 199 201 205 206 202 198 194 192 191 192 196 199 196 194 197 195 190 188 189 192 192 194 197 194 192 193 196 201 208 205 195 189 191 197 198 199 205 215 224 230 244 263 286 300 310 320 321 322 324 326 329 330 333 338 343 347 344 337 325 306 277 252 240 236 234 232 235 237 238 239 241 241 241 242 240 238 238 234
214 202 200 204 206 207 203 205 217 225 225 194 202 229 225 180 182 194 192 192 196 199 201 199 193 190 189 190 191 194 199 198 198 203 201 195 191 189 193 194 194 197 197 195 197 199 204 208 206 198 192 193 198 200 200 205 213 221 229 243 263 283 296 305 314 314 315 317 318 321 324 328 332 337 343 343 337 329 315 287 257 241 231 226 224 225 228 231 234 238 241 243 243 239 236 238 237
207 190 192 197 199 207 207 209 221 221 220 213 198 217 227 182 177 192 189 187 193 191 188 188 188 187 188 189 190 193 199 200 201 205 203 201 197 192 194 194 194 196 197 199 201 203 208 210 208 203 198 197 200 202 203 205 211 222 231 247 266 278 288 297 305 309 312 315 315 317 320 323 325 329 335 338 334 326 312 288 261 240 228 218 213 214 219 222 228 235 239 241 242 238 231 231 234
207 188 187 188 189 199 203 215 221 211 225 225 193 204 228 183 174 188 187 186 190 183 180 181 181 187 192 195 196 199 203 204 204 206 203 201 200 197 196 196 196 195 197 201 204 207 211 210 209 208 203 201 202 204 205 207 213 223 233 248 264 274 284 292 301 308 313 317 317 317 318 319 318 320 327 331 329 321 308 286 258 237 224 208 199 203 208 211 218 226 229 230 234 236 233 230 229
203 185 179 180 186 194 202 219 220 213 226 218 187 203 237 202 176 183 183 183 184 176 176 182 183 189 195 201 204 206 208 208 208 209 207 203 201 200 199 199 199 198 200 204 206 209 213 212 212 211 206 204 204 205 207 209 216 223 233 251 265 275 282 289 299 306 310 314 315 314 317 317 313 313 319 326 324 316 306 280 242 227 214 199 190 190 194 196 199 200 203 208 211 220 224 224 225
197 188 185 184 188 197 205 208 212 227 225 186 176 202 231 222 174 175 184 183 186 186 182 187 193 195 199 204 208 209 210 210 211 211 210 207 206 205 202 202 202 201 202 205 207 210 213 214 216 214 209 207 206 207 208 212 218 227 241 256 265 274 280 285 292 297 300 304 306 309 313 314 309 308 315 322 320 310 302 277 227 211 201 191 181 179 181 182 181 175 171 177 180 190 201 205 212
193 195 194 196 195 194 208 206 205 227 215 151 179 200 218 220 168 173 189 181 181 185 183 188 194 197 201 206 210 212 211 211 212 213 212 210 211 210 209 208 205 204 206 209 208 208 209 213 216 214 207 205 207 209 210 214 218 226 239 250 260 270 277 282 286 289 293 297 301 306 309 304 299 303 312 319 317 304 291 264 216 198 190 181 172 170 171 169 168 162 154 154 157 160 167 173 179
194 198 198 206 209 195 209 214 208 221 193 144 181 199 214 211 172 180 191 183 180 181 180 186 189 194 201 205 210 214 214 213 213 214 214 213 214 214 214 211 208 209 213 218 220 216 214 217 221 217 205 195 199 206 210 212 215 222 232 244 256 266 274 280 285 288 290 292 296 303 304 293 287 295 305 314 312 298 279 249 214 195 185 175 169 166 165 163 162 160 155 152 149 149 150 152 152
198 203 208 217 227 219 214 223 225 222 199 161 176 202 219 208 180 187 193 187 188 187 185 189 191 197 204 206 210 214 216 217 217 217 217 217 217 217 216 213 210 212 217 224 233 235 234 238 241 235 217 196 189 196 207 211 215 224 234 245 255 262 268 275 283 286 285 286 292 298 297 288 285 291 299 310 305 288 264 237 215 199 186 174 169 168 167 166 163 160 157 153 149 148 149 148 148
202 204 214 222 229 229 230 280 291 257 227 184 186 208 220 203 187 194 196 194 195 194 195 198 200 204 208 211 212 214 218 221 221 220 220 219 219 219 219 215 212 215 219 224 233 241 247 254 259 253 237 217 196 190 203 213 221 234 246 253 258 258 260 268 280 283 281 283 291 290 282 283 289 290 292 301 293 267 241 223 210 199 185 172 168 167 166 165 162 159 155 151 148 149 150 149 149
201 207 214 221 225 223 232 260 271 267 262 200 193 211 205 189 194 195 195 197 198 198 200 204 207 209 212 216 218 220 222 224 225 224 223 222 222 221 219 216 215 216 220 223 228 236 244 253 261 251 221 205 208 206 209 217 225 239 248 253 257 256 254 262 274 278 277 282 287 279 268 276 284 285 282 284 277 248 221 207 198 189 178 166 159 155 151 149 149 147 143 139 138 138 139 139 137
196 212 217 218 221 221 231 236 202 218 239 201 196 214 206 194 195 192 195 198 199 201 204 208 213 215 219 223 225 228 229 230 230 227 225 224 224 224 222 218 216 215 219 222 223 231 236 237 248 250 204 168 178 209 209 213 229 243 248 251 258 258 252 253 262 268 273 278 276 263 259 268 279 278 269 260 254 231 206 191 184 175 164 153 146 141 137 136 135 133 130 126 125 126 126 125 124
206 216 213 213 219 214 215 226 219 214 228 216 204 213 216 210 186 174 192 200 197 200 205 209 215 219 225 230 231 233 233 234 235 230 226 224 224 224 223 222 220 216 215 218 219 227 229 226 237 266 245 155 152 209 220 228 243 253 255 252 258 258 245 240 251 265 271 268 254 246 253 263 271 266 249 230 214 203 186 174 168 162 155 148 143 138 135 133 131 129 127 125 125 125 124 123 122
213 218 214 215 226 225 214 220 230 228 231 225 207 208 218 212 178 171 191 196 191 193 197 200 208 216 223 229 231 232 231 232 233 232 227 224 224 225 224 226 225 220 218 220 220 220 220 221 236 289 315 329 298 257 245 241 247 254 252 247 252 254 247 243 249 262 268 256 237 237 248 259 258 242 223 202 190 181 167 164 162 159 156 151 147 142 138 137 135 132 130 129 129 129 128 128 128
211 215 216 214 219 227 227 228 231 239 248 229 215 219 203 189 187 191 196 195 192 194 194 193 201 208 210 210 208 204 205 208 208 207 206 211 220 224 225 223 216 213 218 223 225 224 226 230 237 275 302 298 275 258 243 235 243 249 248 246 248 250 251 251 252 257 260 250 236 234 242 249 242 220 201 188 186 181 170 169 169 166 162 158 154 150 148 146 144 142 140 138 138 137 137 139 140
211 216 220 219 217 219 225 227 219 229 247 240 234 240 182 179 195 198 194 196 196 194 191 187 186 183 178 176 172 168 168 166 160 157 161 173 191 205 218 221 210 206 213 219 224 228 232 238 243 259 269 256 241 239 229 228 242 257 265 259 247 244 247 249 251 256 254 244 234 230 235 238 226 206 198 191 191 190 183 181 182 179 173 168 166 162 159 158 156 155 153 152 153 153 153 156 159